Location: Babice
(50.3480°N, 22.9363°E)
Time: 12:37:35
(UTC+00:00)

Cosmos 1437 Rocket - Pass Details

Date: 14 July 2020
Orbit: 506 x 562 km, 81.2° (Epoch: 07 August)

Event Time Altitude Azimuth Distance (km) Brightness Sun altitude
Rises 00:29:31 0° 343° (NNW) 2,744 7.1 -13.6°
Reaches altitude 10° 00:31:45 10° 338° (NNW) 1,837 6.1 -13.5°
Maximum altitude 00:35:39 49° 264° (W) 712 3.1 -13.2°
Enters shadow 00:38:04 21° 197° (SSW) 1,258 4.0 -13.0°
